IRIDIUM 33 DEB, 34492

Orbit data source: Space-Track

IRIDIUM 33 DEB, 34492 is space debris in LEO originally from a launch on Sun, 14 Sep 1997 UTC launched from the Tyuratam Missile And Space Complex (TTMTR). The debris from Iridium 33, an American commercial communications satellite, has been tracked extensively since its accidental collision with the defunct Russian satellite Cosmos 2251 in 2009. This event, occurring at high speed in low Earth orbit (LEO), generated thousands of pieces of space debris, significantly increasing the risk of further collisions. The Iridium 33 debris cloud has impacted space traffic management and orbital debris mitigation strategies, making it a subject of ongoing study in space situational awareness.

Loading next visibility...
Identifier
34492, 1997-051GH
Orbit
LEO
Country
Flag of USUS
Related business
Manufacturer
Unknown
Mission
Spacecraft
Bus & Motor
Unknown
Mass
Unknown
Launch date (UTC)
1997-09-14 (28 years ago)
Launch vehicle
Unknown
Launch site
Tyuratam Missile And Space Complex (TTMTR)
Object type
Payload
Rocket body
Debris
Shape & HBR
Unknown shape, 0.1 m
Radar Cross Section
Small (<0.1 m²)

Expand to show TLE details & history
Last TLE update: 2 days ago

TLE from 2 days ago
0 IRIDIUM 33 DEB
1 34492U 97051GH  25305.39307422  .00012522  00000-0  45055-2 0  9992
2 34492  86.4717 351.3119 0192330  12.4117   2.8977 14.23873069844703
Epoch: 2025-11-01T09:26Z
TLE epoch observation values (Epoch: 2025-11-01T09:26:01.612Z)
Latitude
15.36967°
Longitude
169.84724°
Altitude
676.491 km
Speed
7.592 km/s
True Right ascension
23h 29m 06s
True Declination
15° 16' 52"
Sunlit
Object was in full shadow at epoch
Visualization orbit readout
Latitude
Unknown
Longitude
Unknown
Altitude
Unknown
Speed
Unknown
Apparent Right ascension
Unknown
Apparent Declination
Unknown
Sunlit
N/A
Visualization observer readout
Local Sidereal Time
14:18:38
Azimuth
Unknown
Elevation
Unknown
Doppler factor
Unknown
Orbital elements
Apogee altitude
947.495 km
Perigee altitude
671.025 km
Semi-major axis
7,187.397 km
Eccentricity
0.01923
Inclination
86.4717°
RAAN
351.3119°
Arg. of periapsis
12.4117°
True anomaly
3.01185°
Mean anomaly
2.8977°
Eccentric anomaly
2.9545°
Mean motion
3.56193 °/min
Orbital period
101.07 mins
BSTAR
0.0045055
Loading maneuver chart data...
Computing Atmospheric mass density...
Loading historical data...
Loading historical data...
Loading historical data...
Loading historical data...
Loading historical data...
Loading historical data...
Loading historical data...

Documentation

Showing up to 5 results
|